Time,TemperatureF,DewpointF,PressureIn,WindDirection,WindDirectionDegrees,WindSpeedMPH,WindSpeedGustMPH,Humidity,HourlyPrecipIn,Conditions,Clouds,dailyrainin,SoftwareType,DateUTC
2013-08-16 00:01:00,62.0,59.0,30.06,NE,45,2.0,3.0,90,0.00,,,0.00,Rainwise IP-100,2013-08-16 05:01:00,
2013-08-16 00:06:00,62.0,59.0,30.06,NE,45,2.0,3.0,90,0.00,,,0.00,Rainwise IP-100,2013-08-16 05:06:00,
2013-08-16 00:11:00,62.0,59.0,30.06,NE,45,3.0,3.0,90,0.00,,,0.00,Rainwise IP-100,2013-08-16 05:11:00,
2013-08-16 00:13:00,61.0,59.0,30.07,NE,45,6.0,6.0,94,0.00,,,0.00,Rainwise IP-100,2013-08-16 05:13:00,
2013-08-16 00:19:00,61.0,59.0,30.07,NE,45,4.0,6.0,95,0.00,,,0.00,Rainwise IP-100,2013-08-16 05:19:00,
2013-08-16 00:20:00,61.0,59.0,30.07,NE,45,3.0,6.0,95,0.00,,,0.00,Rainwise IP-100,2013-08-16 05:20:00,
2013-08-16 00:25:00,61.0,59.0,30.07,NE,45,3.0,5.0,95,0.00,,,0.00,Rainwise IP-100,2013-08-16 05:25:00,
2013-08-16 00:30:00,61.0,60.0,30.07,NE,45,4.0,6.0,98,0.00,,,0.00,Rainwise IP-100,2013-08-16 05:30:00,
2013-08-16 00:35:00,61.0,60.0,30.07,NE,45,4.0,6.0,98,0.00,,,0.00,Rainwise IP-100,2013-08-16 05:35:00,
2013-08-16 00:40:00,61.0,60.0,30.06,NE,45,3.0,6.0,98,0.00,,,0.00,Rainwise IP-100,2013-08-16 05:40:00,
2013-08-16 00:45:00,61.0,60.0,30.06,NE,45,3.0,6.0,98,0.00,,,0.00,Rainwise IP-100,2013-08-16 05:45:00,
2013-08-16 00:50:00,61.0,60.0,30.06,NE,45,5.0,6.0,98,0.00,,,0.00,Rainwise IP-100,2013-08-16 05:50:00,
2013-08-16 00:55:00,61.0,60.0,30.06,NNE,22,6.0,7.0,96,0.00,,,0.00,Rainwise IP-100,2013-08-16 05:55:00,
2013-08-16 01:00:00,61.0,60.0,30.06,NNE,22,6.0,7.0,96,0.00,,,0.00,Rainwise IP-100,2013-08-16 06:00:00,
2013-08-16 01:05:00,61.0,59.0,30.06,NE,45,2.0,7.0,94,0.00,,,0.00,Rainwise IP-100,2013-08-16 06:05:00,
2013-08-16 01:10:00,61.0,59.0,30.06,NE,45,2.0,4.0,95,0.00,,,0.00,Rainwise IP-100,2013-08-16 06:10:00,
2013-08-16 01:15:00,61.0,60.0,30.05,NE,45,1.0,4.0,96,0.00,,,0.00,Rainwise IP-100,2013-08-16 06:15:00,
2013-08-16 01:20:00,61.0,60.0,30.05,NE,45,4.0,4.0,96,0.00,,,0.00,Rainwise IP-100,2013-08-16 06:20:00,
2013-08-16 01:25:00,61.0,60.0,30.05,NE,45,4.0,4.0,96,0.00,,,0.00,Rainwise IP-100,2013-08-16 06:25:00,
2013-08-16 01:30:00,61.0,59.0,30.05,NE,45,8.0,9.0,93,0.00,,,0.00,Rainwise IP-100,2013-08-16 06:30:00,
2013-08-16 01:35:00,61.0,59.0,30.05,NE,45,5.0,9.0,93,0.00,,,0.00,Rainwise IP-100,2013-08-16 06:35:00,
2013-08-16 01:40:00,61.0,59.0,30.05,NE,45,4.0,6.0,93,0.00,,,0.00,Rainwise IP-100,2013-08-16 06:40:00,
2013-08-16 01:45:00,61.0,59.0,30.05,NE,45,4.0,6.0,93,0.00,,,0.00,Rainwise IP-100,2013-08-16 06:45:00,
2013-08-16 01:50:00,61.0,59.0,30.05,NE,45,6.0,6.0,95,0.00,,,0.00,Rainwise IP-100,2013-08-16 06:50:00,
2013-08-16 01:55:00,61.0,59.0,30.05,NE,45,6.0,6.0,95,0.00,,,0.00,Rainwise IP-100,2013-08-16 06:55:00,
2013-08-16 02:00:00,61.0,59.0,30.05,NE,45,6.0,6.0,95,0.00,,,0.00,Rainwise IP-100,2013-08-16 07:00:00,
2013-08-16 02:05:00,61.0,59.0,30.05,NE,45,6.0,6.0,95,0.00,,,0.00,Rainwise IP-100,2013-08-16 07:05:00,
2013-08-16 02:10:00,61.0,60.0,30.05,NNE,22,4.0,6.0,96,0.00,,,0.00,Rainwise IP-100,2013-08-16 07:10:00,
2013-08-16 02:15:00,61.0,60.0,30.05,NE,45,6.0,7.0,96,0.00,,,0.00,Rainwise IP-100,2013-08-16 07:15:00,
2013-08-16 02:20:00,61.0,60.0,30.05,NE,45,6.0,7.0,96,0.00,,,0.00,Rainwise IP-100,2013-08-16 07:20:00,
2013-08-16 02:25:00,61.0,60.0,30.05,NE,45,6.0,7.0,96,0.00,,,0.00,Rainwise IP-100,2013-08-16 07:25:00,
2013-08-16 02:30:00,61.0,59.0,30.04,NNE,22,6.0,8.0,94,0.00,,,0.00,Rainwise IP-100,2013-08-16 07:30:00,
2013-08-16 02:35:00,61.0,59.0,30.04,NE,45,6.0,8.0,94,0.00,,,0.00,Rainwise IP-100,2013-08-16 07:35:00,
2013-08-16 02:40:00,61.0,59.0,30.04,NE,45,6.0,7.0,94,0.00,,,0.00,Rainwise IP-100,2013-08-16 07:40:00,
2013-08-16 02:45:00,60.0,59.0,30.04,NE,45,5.0,7.0,96,0.00,,,0.00,Rainwise IP-100,2013-08-16 07:45:00,
2013-08-16 02:50:00,60.0,59.0,30.04,NE,45,5.0,5.0,96,0.00,,,0.00,Rainwise IP-100,2013-08-16 07:50:00,
2013-08-16 02:55:00,60.0,59.0,30.04,NE,45,4.0,5.0,96,0.00,,,0.00,Rainwise IP-100,2013-08-16 07:55:00,
2013-08-16 03:00:00,60.0,59.0,30.04,NNE,22,9.0,9.0,96,0.00,,,0.00,Rainwise IP-100,2013-08-16 08:00:00,
2013-08-16 03:05:00,60.0,59.0,30.05,NE,45,5.0,9.0,96,0.00,,,0.00,Rainwise IP-100,2013-08-16 08:05:00,
2013-08-16 03:10:00,60.0,59.0,30.05,NE,45,4.0,5.0,96,0.00,,,0.00,Rainwise IP-100,2013-08-16 08:10:00,
2013-08-16 03:15:00,60.0,59.0,30.05,NE,45,4.0,4.0,96,0.00,,,0.00,Rainwise IP-100,2013-08-16 08:15:00,
2013-08-16 03:20:00,60.0,59.0,30.05,NE,45,4.0,4.0,96,0.00,,,0.00,Rainwise IP-100,2013-08-16 08:20:00,
2013-08-16 03:25:00,60.0,59.0,30.05,NE,45,4.0,4.0,96,0.00,,,0.00,Rainwise IP-100,2013-08-16 08:25:00,
2013-08-16 03:30:00,60.0,59.0,30.04,NE,45,7.0,7.0,97,0.00,,,0.00,Rainwise IP-100,2013-08-16 08:30:00,
2013-08-16 03:35:00,60.0,59.0,30.04,East,90,2.0,7.0,97,0.00,,,0.00,Rainwise IP-100,2013-08-16 08:35:00,
2013-08-16 03:40:00,60.0,59.0,30.04,NE,45,2.0,7.0,96,0.00,,,0.00,Rainwise IP-100,2013-08-16 08:40:00,
2013-08-16 03:45:00,60.0,58.0,30.05,NE,45,5.0,9.0,95,0.00,,,0.00,Rainwise IP-100,2013-08-16 08:45:00,
2013-08-16 03:50:00,60.0,58.0,30.05,NE,45,9.0,10.0,95,0.00,,,0.00,Rainwise IP-100,2013-08-16 08:50:00,
2013-08-16 03:55:00,60.0,58.0,30.04,NE,45,6.0,10.0,95,0.00,,,0.00,Rainwise IP-100,2013-08-16 08:55:00,
2013-08-16 04:00:00,60.0,59.0,30.04,NE,45,6.0,6.0,96,0.00,,,0.00,Rainwise IP-100,2013-08-16 09:00:00,
2013-08-16 04:05:00,60.0,59.0,30.04,NE,45,5.0,6.0,96,0.00,,,0.00,Rainwise IP-100,2013-08-16 09:05:00,
2013-08-16 04:10:00,60.0,59.0,30.04,NE,45,5.0,7.0,96,0.00,,,0.00,Rainwise IP-100,2013-08-16 09:10:00,
2013-08-16 04:15:00,60.0,58.0,30.04,NE,45,4.0,8.0,95,0.00,,,0.00,Rainwise IP-100,2013-08-16 09:15:00,
2013-08-16 04:20:00,60.0,59.0,30.04,NE,45,7.0,8.0,96,0.00,,,0.00,Rainwise IP-100,2013-08-16 09:20:00,
2013-08-16 04:25:00,60.0,59.0,30.04,NE,45,5.0,8.0,96,0.00,,,0.00,Rainwise IP-100,2013-08-16 09:25:00,
2013-08-16 04:30:00,60.0,59.0,30.04,NE,45,0.0,7.0,96,0.00,,,0.00,Rainwise IP-100,2013-08-16 09:30:00,
2013-08-16 04:35:00,60.0,59.0,30.04,NE,45,1.0,5.0,96,0.00,,,0.00,Rainwise IP-100,2013-08-16 09:35:00,
2013-08-16 04:40:00,60.0,59.0,30.05,NE,45,2.0,7.0,96,0.00,,,0.00,Rainwise IP-100,2013-08-16 09:40:00,
2013-08-16 04:45:00,60.0,59.0,30.05,East,90,3.0,6.0,96,0.00,,,0.00,Rainwise IP-100,2013-08-16 09:45:00,
2013-08-16 04:50:00,60.0,58.0,30.05,North,360,6.0,6.0,95,0.00,,,0.00,Rainwise IP-100,2013-08-16 09:50:00,
2013-08-16 04:55:00,60.0,58.0,30.05,North,360,6.0,6.0,95,0.00,,,0.00,Rainwise IP-100,2013-08-16 09:55:00,
2013-08-16 05:00:00,60.0,58.0,30.05,North,360,6.0,6.0,95,0.00,,,0.00,Rainwise IP-100,2013-08-16 10:00:00,
2013-08-16 05:05:00,60.0,59.0,30.05,NE,45,5.0,7.0,96,0.00,,,0.00,Rainwise IP-100,2013-08-16 10:05:00,
2013-08-16 05:10:00,60.0,58.0,30.05,NE,45,6.0,7.0,95,0.00,,,0.00,Rainwise IP-100,2013-08-16 10:10:00,
2013-08-16 05:15:00,60.0,58.0,30.05,NE,45,6.0,8.0,95,0.00,,,0.00,Rainwise IP-100,2013-08-16 10:15:00,
2013-08-16 05:20:00,60.0,58.0,30.05,NNE,22,6.0,10.0,95,0.00,,,0.00,Rainwise IP-100,2013-08-16 10:20:00,
2013-08-16 05:25:00,60.0,58.0,30.05,NNE,22,6.0,6.0,95,0.00,,,0.00,Rainwise IP-100,2013-08-16 10:25:00,
2013-08-16 05:30:00,60.0,58.0,30.05,NNE,22,6.0,6.0,95,0.00,,,0.00,Rainwise IP-100,2013-08-16 10:30:00,
2013-08-16 05:35:00,60.0,58.0,30.05,NE,45,2.0,6.0,95,0.00,,,0.00,Rainwise IP-100,2013-08-16 10:35:00,
2013-08-16 05:40:00,60.0,58.0,30.05,NE,45,0.0,3.0,95,0.00,,,0.00,Rainwise IP-100,2013-08-16 10:40:00,
2013-08-16 05:45:00,60.0,58.0,30.05,NE,45,0.0,3.0,95,0.00,,,0.00,Rainwise IP-100,2013-08-16 10:45:00,
2013-08-16 05:50:00,60.0,58.0,30.05,NE,45,0.0,3.0,95,0.00,,,0.00,Rainwise IP-100,2013-08-16 10:50:00,
2013-08-16 05:55:00,60.0,58.0,30.05,NE,45,0.0,3.0,95,0.00,,,0.00,Rainwise IP-100,2013-08-16 10:55:00,
2013-08-16 06:00:00,60.0,58.0,30.06,NE,45,7.0,7.0,94,0.00,,,0.00,Rainwise IP-100,2013-08-16 11:00:00,
2013-08-16 06:05:00,61.0,59.0,30.05,NE,45,4.0,10.0,95,0.00,,,0.00,Rainwise IP-100,2013-08-16 11:05:00,
2013-08-16 06:10:00,61.0,59.0,30.05,NE,45,4.0,7.0,95,0.00,,,0.00,Rainwise IP-100,2013-08-16 11:10:00,
2013-08-16 06:15:00,61.0,59.0,30.05,NE,45,4.0,7.0,95,0.00,,,0.00,Rainwise IP-100,2013-08-16 11:15:00,
2013-08-16 06:20:00,61.0,59.0,30.05,NE,45,4.0,7.0,95,0.00,,,0.00,Rainwise IP-100,2013-08-16 11:20:00,
2013-08-16 06:25:00,61.0,59.0,30.06,NE,45,7.0,8.0,94,0.00,,,0.00,Rainwise IP-100,2013-08-16 11:25:00,
2013-08-16 06:30:00,61.0,59.0,30.06,North,360,2.0,8.0,94,0.00,,,0.00,Rainwise IP-100,2013-08-16 11:30:00,
2013-08-16 06:35:00,61.0,59.0,30.07,NNE,22,4.0,5.0,95,0.00,,,0.00,Rainwise IP-100,2013-08-16 11:35:00,
2013-08-16 06:40:00,61.0,59.0,30.07,NNE,22,4.0,4.0,95,0.00,,,0.00,Rainwise IP-100,2013-08-16 11:40:00,
2013-08-16 06:45:00,61.0,59.0,30.07,NNE,22,4.0,4.0,95,0.00,,,0.00,Rainwise IP-100,2013-08-16 11:45:00,
2013-08-16 06:50:00,61.0,59.0,30.07,NE,45,3.0,8.0,94,0.00,,,0.00,Rainwise IP-100,2013-08-16 11:50:00,
2013-08-16 06:55:00,61.0,59.0,30.07,NE,45,6.0,8.0,94,0.00,,,0.00,Rainwise IP-100,2013-08-16 11:55:00,
2013-08-16 07:00:00,61.0,59.0,30.07,NE,45,6.0,8.0,94,0.00,,,0.00,Rainwise IP-100,2013-08-16 12:00:00,
2013-08-16 07:05:00,61.0,59.0,30.07,NE,45,6.0,8.0,94,0.00,,,0.00,Rainwise IP-100,2013-08-16 12:05:00,
2013-08-16 07:10:00,62.0,59.0,30.07,NE,45,1.0,8.0,91,0.00,,,0.00,Rainwise IP-100,2013-08-16 12:10:00,
2013-08-16 07:15:00,62.0,59.0,30.07,NE,45,2.0,3.0,91,0.00,,,0.00,Rainwise IP-100,2013-08-16 12:15:00,
2013-08-16 07:20:00,62.0,59.0,30.07,NE,45,2.0,5.0,91,0.00,,,0.00,Rainwise IP-100,2013-08-16 12:20:00,
2013-08-16 07:25:00,62.0,59.0,30.07,NE,45,2.0,3.0,91,0.00,,,0.00,Rainwise IP-100,2013-08-16 12:25:00,
2013-08-16 07:30:00,64.0,60.0,30.07,North,360,3.0,5.0,87,0.00,,,0.00,Rainwise IP-100,2013-08-16 12:30:00,
2013-08-16 07:35:00,64.0,60.0,30.07,North,360,4.0,4.0,87,0.00,,,0.00,Rainwise IP-100,2013-08-16 12:35:00,
2013-08-16 07:40:00,64.0,59.0,30.07,NE,45,7.0,7.0,84,0.00,,,0.00,Rainwise IP-100,2013-08-16 12:40:00,
2013-08-16 07:45:00,64.0,59.0,30.07,ENE,67,3.0,7.0,84,0.00,,,0.00,Rainwise IP-100,2013-08-16 12:45:00,
2013-08-16 07:50:00,64.0,59.0,30.07,ENE,67,3.0,5.0,84,0.00,,,0.00,Rainwise IP-100,2013-08-16 12:50:00,
2013-08-16 07:55:00,66.0,60.0,30.08,North,360,2.0,7.0,83,0.00,,,0.00,Rainwise IP-100,2013-08-16 12:55:00,
2013-08-16 08:00:00,66.0,60.0,30.08,NE,45,5.0,6.0,82,0.00,,,0.00,Rainwise IP-100,2013-08-16 13:00:00,
2013-08-16 08:05:00,66.0,60.0,30.08,NE,45,3.0,6.0,83,0.00,,,0.00,Rainwise IP-100,2013-08-16 13:05:00,
2013-08-16 08:10:00,66.0,60.0,30.08,NE,45,3.0,4.0,83,0.00,,,0.00,Rainwise IP-100,2013-08-16 13:10:00,
2013-08-16 08:15:00,65.0,60.0,30.08,NE,45,8.0,8.0,84,0.00,,,0.00,Rainwise IP-100,2013-08-16 13:15:00,
2013-08-16 08:20:00,65.0,60.0,30.08,NE,45,8.0,8.0,84,0.00,,,0.00,Rainwise IP-100,2013-08-16 13:20:00,
2013-08-16 08:25:00,65.0,60.0,30.08,NE,45,8.0,8.0,84,0.00,,,0.00,Rainwise IP-100,2013-08-16 13:25:00,
2013-08-16 08:30:00,65.0,60.0,30.08,East,90,3.0,8.0,86,0.00,,,0.00,Rainwise IP-100,2013-08-16 13:30:00,
2013-08-16 08:35:00,65.0,60.0,30.08,East,90,3.0,4.0,86,0.00,,,0.00,Rainwise IP-100,2013-08-16 13:35:00,
2013-08-16 08:40:00,65.0,60.0,30.08,East,90,3.0,4.0,86,0.00,,,0.00,Rainwise IP-100,2013-08-16 13:40:00,
2013-08-16 08:45:00,65.0,61.0,30.07,ENE,67,4.0,4.0,88,0.00,,,0.00,Rainwise IP-100,2013-08-16 13:45:00,
2013-08-16 08:50:00,65.0,60.0,30.07,NE,45,6.0,7.0,86,0.00,,,0.00,Rainwise IP-100,2013-08-16 13:50:00,
2013-08-16 08:55:00,65.0,60.0,30.07,ESE,112,6.0,12.0,86,0.00,,,0.00,Rainwise IP-100,2013-08-16 13:55:00,
2013-08-16 09:00:00,65.0,60.0,30.07,NE,45,6.0,9.0,86,0.00,,,0.00,Rainwise IP-100,2013-08-16 14:00:00,
2013-08-16 09:05:00,65.0,60.0,30.07,NE,45,7.0,9.0,85,0.00,,,0.00,Rainwise IP-100,2013-08-16 14:05:00,
2013-08-16 09:10:00,65.0,60.0,30.07,NE,45,7.0,9.0,85,0.00,,,0.00,Rainwise IP-100,2013-08-16 14:10:00,
2013-08-16 09:15:00,65.0,60.0,30.07,ENE,67,6.0,9.0,85,0.00,,,0.00,Rainwise IP-100,2013-08-16 14:15:00,
2013-08-16 09:20:00,67.0,61.0,30.07,NE,45,6.0,9.0,82,0.00,,,0.00,Rainwise IP-100,2013-08-16 14:20:00,
2013-08-16 09:25:00,66.0,61.0,30.07,NNE,22,7.0,9.0,84,0.00,,,0.00,Rainwise IP-100,2013-08-16 14:25:00,
2013-08-16 09:30:00,67.0,62.0,30.07,NE,45,6.0,8.0,84,0.00,,,0.00,Rainwise IP-100,2013-08-16 14:30:00,
2013-08-16 09:35:00,67.0,62.0,30.07,ENE,67,4.0,7.0,83,0.00,,,0.00,Rainwise IP-100,2013-08-16 14:35:00,
2013-08-16 09:40:00,67.0,61.0,30.08,ENE,67,3.0,7.0,82,0.00,,,0.00,Rainwise IP-100,2013-08-16 14:40:00,
2013-08-16 09:45:00,67.0,61.0,30.08,ENE,67,3.0,3.0,82,0.00,,,0.00,Rainwise IP-100,2013-08-16 14:45:00,
2013-08-16 09:50:00,67.0,61.0,30.08,ENE,67,3.0,3.0,82,0.00,,,0.00,Rainwise IP-100,2013-08-16 14:50:00,
2013-08-16 09:55:00,67.0,61.0,30.08,ENE,67,3.0,3.0,82,0.00,,,0.00,Rainwise IP-100,2013-08-16 14:55:00,
2013-08-16 10:00:00,67.0,61.0,30.08,ENE,67,3.0,3.0,82,0.00,,,0.00,Rainwise IP-100,2013-08-16 15:00:00,
2013-08-16 10:05:00,70.0,62.0,30.07,NE,45,6.0,6.0,77,0.00,,,0.00,Rainwise IP-100,2013-08-16 15:05:00,
2013-08-16 10:10:00,73.0,65.0,30.07,NNE,22,1.0,6.0,75,0.00,,,0.00,Rainwise IP-100,2013-08-16 15:10:00,
2013-08-16 10:15:00,73.0,65.0,30.07,NNE,22,1.0,6.0,75,0.00,,,0.00,Rainwise IP-100,2013-08-16 15:15:00,
2013-08-16 10:20:00,73.0,65.0,30.07,NNW,337,0.0,3.0,75,0.00,,,0.00,Rainwise IP-100,2013-08-16 15:20:00,
2013-08-16 10:25:00,73.0,65.0,30.07,NNW,337,0.0,3.0,75,0.00,,,0.00,Rainwise IP-100,2013-08-16 15:25:00,
2013-08-16 10:30:00,76.0,64.0,30.06,SSE,157,1.0,3.0,67,0.00,,,0.00,Rainwise IP-100,2013-08-16 15:30:00,
2013-08-16 10:35:00,76.0,64.0,30.06,SSE,157,1.0,2.0,67,0.00,,,0.00,Rainwise IP-100,2013-08-16 15:35:00,
2013-08-16 10:40:00,76.0,64.0,30.06,SSE,157,1.0,2.0,67,0.00,,,0.00,Rainwise IP-100,2013-08-16 15:40:00,
2013-08-16 10:45:00,76.0,64.0,30.06,SSE,157,1.0,2.0,67,0.00,,,0.00,Rainwise IP-100,2013-08-16 15:45:00,
2013-08-16 10:50:00,76.0,64.0,30.06,SSE,157,1.0,2.0,67,0.00,,,0.00,Rainwise IP-100,2013-08-16 15:50:00,
2013-08-16 10:55:00,75.0,64.0,30.07,NNE,22,1.0,2.0,69,0.00,,,0.00,Rainwise IP-100,2013-08-16 15:55:00,
2013-08-16 11:00:00,76.0,65.0,30.07,NNE,22,2.0,3.0,69,0.00,,,0.00,Rainwise IP-100,2013-08-16 16:00:00,
2013-08-16 11:05:00,76.0,65.0,30.07,NNE,22,2.0,4.0,69,0.00,,,0.00,Rainwise IP-100,2013-08-16 16:05:00,
2013-08-16 11:10:00,75.0,65.0,30.07,NE,45,2.0,4.0,70,0.00,,,0.00,Rainwise IP-100,2013-08-16 16:10:00,
2013-08-16 11:15:00,75.0,65.0,30.07,NE,45,2.0,4.0,70,0.00,,,0.00,Rainwise IP-100,2013-08-16 16:15:00,
2013-08-16 11:20:00,75.0,65.0,30.07,NE,45,2.0,4.0,70,0.00,,,0.00,Rainwise IP-100,2013-08-16 16:20:00,
2013-08-16 11:25:00,75.0,65.0,30.07,NE,45,2.0,4.0,70,0.00,,,0.00,Rainwise IP-100,2013-08-16 16:25:00,
2013-08-16 11:30:00,75.0,65.0,30.07,NE,45,4.0,4.0,70,0.00,,,0.00,Rainwise IP-100,2013-08-16 16:30:00,
2013-08-16 11:35:00,74.0,65.0,30.07,East,90,2.0,6.0,73,0.00,,,0.00,Rainwise IP-100,2013-08-16 16:35:00,
2013-08-16 11:40:00,74.0,65.0,30.07,East,90,2.0,7.0,73,0.00,,,0.00,Rainwise IP-100,2013-08-16 16:40:00,
2013-08-16 11:45:00,73.0,63.0,30.07,NE,45,9.0,9.0,71,0.00,,,0.00,Rainwise IP-100,2013-08-16 16:45:00,
2013-08-16 11:50:00,73.0,63.0,30.07,NE,45,9.0,9.0,71,0.00,,,0.00,Rainwise IP-100,2013-08-16 16:50:00,
2013-08-16 11:55:00,73.0,63.0,30.07,NE,45,9.0,9.0,71,0.00,,,0.00,Rainwise IP-100,2013-08-16 16:55:00,
2013-08-16 12:00:00,73.0,63.0,30.07,NE,45,4.0,9.0,72,0.00,,,0.00,Rainwise IP-100,2013-08-16 17:00:00,
2013-08-16 12:05:00,74.0,65.0,30.07,NE,45,6.0,7.0,74,0.00,,,0.00,Rainwise IP-100,2013-08-16 17:05:00,
2013-08-16 12:10:00,74.0,64.0,30.07,NE,45,7.0,10.0,72,0.00,,,0.00,Rainwise IP-100,2013-08-16 17:10:00,
2013-08-16 12:15:00,74.0,64.0,30.07,NE,45,7.0,8.0,72,0.00,,,0.00,Rainwise IP-100,2013-08-16 17:15:00,
2013-08-16 12:20:00,73.0,64.0,30.08,East,90,7.0,8.0,73,0.00,,,0.00,Rainwise IP-100,2013-08-16 17:20:00,
2013-08-16 12:25:00,75.0,66.0,30.08,NNE,22,5.0,7.0,74,0.00,,,0.00,Rainwise IP-100,2013-08-16 17:25:00,
2013-08-16 12:30:00,75.0,66.0,30.08,NNE,22,5.0,6.0,74,0.00,,,0.00,Rainwise IP-100,2013-08-16 17:30:00,
2013-08-16 12:35:00,75.0,66.0,30.08,NNE,22,5.0,6.0,74,0.00,,,0.00,Rainwise IP-100,2013-08-16 17:35:00,
2013-08-16 12:40:00,75.0,66.0,30.08,NNE,22,5.0,6.0,74,0.00,,,0.00,Rainwise IP-100,2013-08-16 17:40:00,
2013-08-16 12:45:00,76.0,65.0,30.07,NE,45,5.0,8.0,69,0.00,,,0.00,Rainwise IP-100,2013-08-16 17:45:00,
2013-08-16 12:50:00,75.0,62.0,30.07,NE,45,8.0,9.0,65,0.00,,,0.00,Rainwise IP-100,2013-08-16 17:50:00,
2013-08-16 12:55:00,74.0,61.0,30.07,NE,45,9.0,10.0,63,0.00,,,0.00,Rainwise IP-100,2013-08-16 17:55:00,
2013-08-16 13:00:00,75.0,62.0,30.07,ENE,67,9.0,11.0,64,0.00,,,0.00,Rainwise IP-100,2013-08-16 18:00:00,
2013-08-16 13:05:00,75.0,61.0,30.06,NE,45,10.0,11.0,63,0.00,,,0.00,Rainwise IP-100,2013-08-16 18:05:00,
2013-08-16 13:10:00,75.0,61.0,30.06,NE,45,9.0,11.0,61,0.00,,,0.00,Rainwise IP-100,2013-08-16 18:10:00,
2013-08-16 13:15:00,75.0,61.0,30.06,NE,45,7.0,9.0,61,0.00,,,0.00,Rainwise IP-100,2013-08-16 18:15:00,
2013-08-16 13:20:00,75.0,61.0,30.06,NE,45,9.0,9.0,61,0.00,,,0.00,Rainwise IP-100,2013-08-16 18:20:00,
2013-08-16 13:25:00,75.0,61.0,30.06,NE,45,9.0,9.0,61,0.00,,,0.00,Rainwise IP-100,2013-08-16 18:25:00,
2013-08-16 13:30:00,76.0,62.0,30.05,NE,45,10.0,10.0,62,0.00,,,0.00,Rainwise IP-100,2013-08-16 18:30:00,
2013-08-16 13:35:00,76.0,62.0,30.06,NE,45,10.0,10.0,62,0.00,,,0.00,Rainwise IP-100,2013-08-16 18:35:00,
2013-08-16 13:40:00,76.0,62.0,30.06,NE,45,7.0,11.0,62,0.00,,,0.00,Rainwise IP-100,2013-08-16 18:40:00,
2013-08-16 13:45:00,76.0,62.0,30.06,NE,45,7.0,11.0,62,0.00,,,0.00,Rainwise IP-100,2013-08-16 18:45:00,
2013-08-16 13:50:00,76.0,62.0,30.06,NE,45,7.0,11.0,62,0.00,,,0.00,Rainwise IP-100,2013-08-16 18:50:00,
2013-08-16 13:55:00,76.0,62.0,30.06,NE,45,7.0,11.0,62,0.00,,,0.00,Rainwise IP-100,2013-08-16 18:55:00,
2013-08-16 14:00:00,76.0,62.0,30.06,NE,45,7.0,11.0,62,0.00,,,0.00,Rainwise IP-100,2013-08-16 19:00:00,
2013-08-16 14:05:00,76.0,62.0,30.06,NE,45,10.0,11.0,62,0.00,,,0.00,Rainwise IP-100,2013-08-16 19:05:00,
2013-08-16 14:10:00,76.0,62.0,30.06,NE,45,10.0,11.0,62,0.00,,,0.00,Rainwise IP-100,2013-08-16 19:10:00,
2013-08-16 14:15:00,77.0,61.0,30.05,ENE,67,3.0,11.0,57,0.00,,,0.00,Rainwise IP-100,2013-08-16 19:15:00,
2013-08-16 14:20:00,76.0,60.0,30.05,NE,45,13.0,13.0,58,0.00,,,0.00,Rainwise IP-100,2013-08-16 19:20:00,
2013-08-16 14:25:00,76.0,61.0,30.05,NE,45,3.0,13.0,61,0.00,,,0.00,Rainwise IP-100,2013-08-16 19:25:00,
2013-08-16 14:30:00,76.0,62.0,30.05,NE,45,2.0,13.0,63,0.00,,,0.00,Rainwise IP-100,2013-08-16 19:30:00,
2013-08-16 14:35:00,76.0,62.0,30.05,NE,45,7.0,7.0,62,0.00,,,0.00,Rainwise IP-100,2013-08-16 19:35:00,
2013-08-16 14:40:00,76.0,60.0,30.05,NE,45,7.0,7.0,59,0.00,,,0.00,Rainwise IP-100,2013-08-16 19:40:00,
2013-08-16 14:45:00,76.0,60.0,30.05,NE,45,7.0,10.0,59,0.00,,,0.00,Rainwise IP-100,2013-08-16 19:45:00,
2013-08-16 14:50:00,76.0,60.0,30.05,NE,45,7.0,10.0,59,0.00,,,0.00,Rainwise IP-100,2013-08-16 19:50:00,
2013-08-16 14:55:00,76.0,60.0,30.05,NE,45,7.0,10.0,59,0.00,,,0.00,Rainwise IP-100,2013-08-16 19:55:00,
2013-08-16 15:00:00,75.0,60.0,30.05,NE,45,9.0,12.0,60,0.00,,,0.00,Rainwise IP-100,2013-08-16 20:00:00,
2013-08-16 15:05:00,75.0,60.0,30.05,NE,45,9.0,9.0,60,0.00,,,0.00,Rainwise IP-100,2013-08-16 20:05:00,
2013-08-16 15:10:00,75.0,60.0,30.05,NE,45,9.0,9.0,60,0.00,,,0.00,Rainwise IP-100,2013-08-16 20:10:00,
2013-08-16 15:15:00,76.0,63.0,30.04,North,360,4.0,9.0,64,0.00,,,0.00,Rainwise IP-100,2013-08-16 20:15:00,
2013-08-16 15:20:00,76.0,63.0,30.04,South,180,1.0,9.0,64,0.00,,,0.00,Rainwise IP-100,2013-08-16 20:20:00,
2013-08-16 15:25:00,76.0,63.0,30.04,South,180,1.0,7.0,64,0.00,,,0.00,Rainwise IP-100,2013-08-16 20:25:00,
2013-08-16 15:30:00,77.0,61.0,30.03,NE,45,8.0,10.0,58,0.00,,,0.00,Rainwise IP-100,2013-08-16 20:30:00,
2013-08-16 15:35:00,77.0,61.0,30.03,NE,45,4.0,10.0,58,0.00,,,0.00,Rainwise IP-100,2013-08-16 20:35:00,
2013-08-16 15:40:00,76.0,60.0,30.03,NE,45,5.0,10.0,59,0.00,,,0.00,Rainwise IP-100,2013-08-16 20:40:00,
2013-08-16 15:45:00,76.0,60.0,30.04,ESE,112,2.0,10.0,59,0.00,,,0.00,Rainwise IP-100,2013-08-16 20:45:00,
2013-08-16 15:50:00,76.0,60.0,30.04,NE,45,6.0,10.0,59,0.00,,,0.00,Rainwise IP-100,2013-08-16 20:50:00,
2013-08-16 15:55:00,76.0,60.0,30.04,NE,45,6.0,9.0,59,0.00,,,0.00,Rainwise IP-100,2013-08-16 20:55:00,
2013-08-16 16:00:00,76.0,60.0,30.04,ENE,67,7.0,9.0,59,0.00,,,0.00,Rainwise IP-100,2013-08-16 21:00:00,
2013-08-16 16:05:00,76.0,63.0,30.04,NE,45,4.0,9.0,64,0.00,,,0.00,Rainwise IP-100,2013-08-16 21:05:00,
2013-08-16 16:10:00,76.0,60.0,30.04,NE,45,9.0,10.0,59,0.00,,,0.00,Rainwise IP-100,2013-08-16 21:10:00,
2013-08-16 16:15:00,76.0,62.0,30.04,NNE,22,6.0,10.0,63,0.00,,,0.00,Rainwise IP-100,2013-08-16 21:15:00,
2013-08-16 16:20:00,76.0,62.0,30.04,NNE,22,6.0,7.0,63,0.00,,,0.00,Rainwise IP-100,2013-08-16 21:20:00,
2013-08-16 16:25:00,76.0,62.0,30.04,NNE,22,6.0,7.0,63,0.00,,,0.00,Rainwise IP-100,2013-08-16 21:25:00,
2013-08-16 16:30:00,76.0,62.0,30.04,NE,45,9.0,9.0,63,0.00,,,0.00,Rainwise IP-100,2013-08-16 21:30:00,
2013-08-16 16:35:00,76.0,62.0,30.04,NE,45,3.0,10.0,62,0.00,,,0.00,Rainwise IP-100,2013-08-16 21:35:00,
2013-08-16 16:40:00,76.0,62.0,30.04,NE,45,3.0,9.0,62,0.00,,,0.00,Rainwise IP-100,2013-08-16 21:40:00,
2013-08-16 16:45:00,75.0,61.0,30.04,East,90,6.0,9.0,62,0.00,,,0.00,Rainwise IP-100,2013-08-16 21:45:00,
2013-08-16 16:50:00,75.0,61.0,30.04,ENE,67,9.0,11.0,63,0.00,,,0.00,Rainwise IP-100,2013-08-16 21:50:00,
2013-08-16 16:55:00,75.0,61.0,30.04,ENE,67,9.0,11.0,63,0.00,,,0.00,Rainwise IP-100,2013-08-16 21:55:00,
2013-08-16 17:00:00,75.0,61.0,30.04,ENE,67,9.0,11.0,63,0.00,,,0.00,Rainwise IP-100,2013-08-16 22:00:00,
2013-08-16 17:05:00,75.0,61.0,30.04,NE,45,11.0,11.0,63,0.00,,,0.00,Rainwise IP-100,2013-08-16 22:05:00,
2013-08-16 17:10:00,75.0,61.0,30.04,NE,45,11.0,11.0,63,0.00,,,0.00,Rainwise IP-100,2013-08-16 22:10:00,
2013-08-16 17:15:00,75.0,64.0,30.03,NE,45,1.0,11.0,68,0.00,,,0.00,Rainwise IP-100,2013-08-16 22:15:00,
2013-08-16 17:20:00,75.0,64.0,30.03,NE,45,1.0,5.0,68,0.00,,,0.00,Rainwise IP-100,2013-08-16 22:20:00,
2013-08-16 17:25:00,75.0,64.0,30.03,ENE,67,6.0,7.0,68,0.00,,,0.00,Rainwise IP-100,2013-08-16 22:25:00,
2013-08-16 17:30:00,75.0,64.0,30.03,NE,45,4.0,7.0,69,0.00,,,0.00,Rainwise IP-100,2013-08-16 22:30:00,
2013-08-16 17:35:00,75.0,64.0,30.03,NE,45,4.0,6.0,69,0.00,,,0.00,Rainwise IP-100,2013-08-16 22:35:00,
2013-08-16 17:40:00,75.0,64.0,30.03,NE,45,4.0,6.0,69,0.00,,,0.00,Rainwise IP-100,2013-08-16 22:40:00,
2013-08-16 17:45:00,75.0,64.0,30.03,NE,45,4.0,6.0,69,0.00,,,0.00,Rainwise IP-100,2013-08-16 22:45:00,
2013-08-16 17:50:00,74.0,63.0,30.03,NE,45,5.0,6.0,68,0.00,,,0.00,Rainwise IP-100,2013-08-16 22:50:00,
2013-08-16 17:55:00,74.0,63.0,30.03,NE,45,7.0,7.0,69,0.00,,,0.00,Rainwise IP-100,2013-08-16 22:55:00,
2013-08-16 18:00:00,74.0,64.0,30.03,NE,45,4.0,7.0,70,0.00,,,0.00,Rainwise IP-100,2013-08-16 23:00:00,
2013-08-16 18:05:00,74.0,64.0,30.03,NE,45,2.0,5.0,71,0.00,,,0.00,Rainwise IP-100,2013-08-16 23:05:00,
2013-08-16 18:10:00,74.0,64.0,30.03,NNE,22,2.0,4.0,71,0.00,,,0.00,Rainwise IP-100,2013-08-16 23:10:00,
2013-08-16 18:15:00,74.0,64.0,30.03,NNE,22,2.0,3.0,71,0.00,,,0.00,Rainwise IP-100,2013-08-16 23:15:00,
2013-08-16 18:20:00,74.0,64.0,30.03,NNE,22,2.0,3.0,71,0.00,,,0.00,Rainwise IP-100,2013-08-16 23:20:00,
2013-08-16 18:25:00,74.0,64.0,30.03,NNE,22,2.0,3.0,71,0.00,,,0.00,Rainwise IP-100,2013-08-16 23:25:00,
2013-08-16 18:30:00,74.0,64.0,30.03,NNE,22,2.0,3.0,71,0.00,,,0.00,Rainwise IP-100,2013-08-16 23:30:00,
2013-08-16 18:35:00,74.0,64.0,30.03,NNE,22,2.0,3.0,71,0.00,,,0.00,Rainwise IP-100,2013-08-16 23:35:00,
2013-08-16 18:40:00,73.0,65.0,30.03,North,360,1.0,3.0,76,0.00,,,0.00,Rainwise IP-100,2013-08-16 23:40:00,
2013-08-16 18:45:00,73.0,65.0,30.03,North,360,1.0,3.0,76,0.00,,,0.00,Rainwise IP-100,2013-08-16 23:45:00,
2013-08-16 18:50:00,73.0,66.0,30.04,NE,45,1.0,4.0,78,0.00,,,0.00,Rainwise IP-100,2013-08-16 23:50:00,
2013-08-16 18:55:00,73.0,66.0,30.04,NE,45,1.0,4.0,78,0.00,,,0.00,Rainwise IP-100,2013-08-16 23:55:00,
2013-08-16 19:00:00,73.0,66.0,30.04,NE,45,3.0,4.0,80,0.00,,,0.00,Rainwise IP-100,2013-08-17 00:00:00,
2013-08-16 19:05:00,73.0,66.0,30.04,NE,45,1.0,3.0,80,0.00,,,0.00,Rainwise IP-100,2013-08-17 00:05:00,
2013-08-16 19:10:00,73.0,66.0,30.04,NE,45,1.0,3.0,80,0.00,,,0.00,Rainwise IP-100,2013-08-17 00:10:00,
2013-08-16 19:15:00,73.0,66.0,30.04,NE,45,1.0,3.0,80,0.00,,,0.00,Rainwise IP-100,2013-08-17 00:15:00,
2013-08-16 19:20:00,72.0,65.0,30.05,NE,45,1.0,3.0,80,0.00,,,0.00,Rainwise IP-100,2013-08-17 00:20:00,
2013-08-16 19:25:00,72.0,65.0,30.05,ENE,67,1.0,2.0,80,0.00,,,0.00,Rainwise IP-100,2013-08-17 00:25:00,
2013-08-16 19:30:00,72.0,65.0,30.05,NE,45,0.0,1.0,80,0.00,,,0.00,Rainwise IP-100,2013-08-17 00:30:00,
2013-08-16 19:35:00,72.0,65.0,30.05,North,360,3.0,5.0,80,0.00,,,0.00,Rainwise IP-100,2013-08-17 00:35:00,
2013-08-16 19:40:00,72.0,65.0,30.05,North,360,4.0,5.0,80,0.00,,,0.00,Rainwise IP-100,2013-08-17 00:40:00,
2013-08-16 19:45:00,72.0,65.0,30.05,North,360,4.0,5.0,80,0.00,,,0.00,Rainwise IP-100,2013-08-17 00:45:00,
2013-08-16 19:50:00,72.0,65.0,30.05,North,360,4.0,5.0,80,0.00,,,0.00,Rainwise IP-100,2013-08-17 00:50:00,
2013-08-16 19:55:00,72.0,66.0,30.05,NE,45,0.0,5.0,81,0.00,,,0.00,Rainwise IP-100,2013-08-17 00:55:00,
2013-08-16 20:00:00,72.0,66.0,30.05,NE,45,0.0,1.0,81,0.00,,,0.00,Rainwise IP-100,2013-08-17 01:00:00,
2013-08-16 20:05:00,71.0,65.0,30.05,NE,45,4.0,6.0,82,0.00,,,0.00,Rainwise IP-100,2013-08-17 01:05:00,
2013-08-16 20:10:00,71.0,65.0,30.05,NE,45,3.0,4.0,82,0.00,,,0.00,Rainwise IP-100,2013-08-17 01:10:00,
2013-08-16 20:15:00,71.0,65.0,30.05,NE,45,3.0,4.0,82,0.00,,,0.00,Rainwise IP-100,2013-08-17 01:15:00,
2013-08-16 20:20:00,71.0,65.0,30.05,NE,45,3.0,4.0,82,0.00,,,0.00,Rainwise IP-100,2013-08-17 01:20:00,
2013-08-16 20:25:00,71.0,65.0,30.05,NE,45,3.0,4.0,82,0.00,,,0.00,Rainwise IP-100,2013-08-17 01:25:00,
2013-08-16 20:30:00,71.0,64.0,30.05,ENE,67,1.0,5.0,79,0.00,,,0.00,Rainwise IP-100,2013-08-17 01:30:00,
2013-08-16 20:35:00,71.0,64.0,30.05,ENE,67,2.0,5.0,79,0.00,,,0.00,Rainwise IP-100,2013-08-17 01:35:00,
2013-08-16 20:40:00,71.0,64.0,30.05,ENE,67,2.0,5.0,79,0.00,,,0.00,Rainwise IP-100,2013-08-17 01:40:00,
2013-08-16 20:45:00,71.0,64.0,30.06,ENE,67,4.0,5.0,80,0.00,,,0.00,Rainwise IP-100,2013-08-17 01:45:00,
2013-08-16 20:50:00,71.0,64.0,30.06,NE,45,2.0,4.0,80,0.00,,,0.00,Rainwise IP-100,2013-08-17 01:50:00,
2013-08-16 20:55:00,71.0,64.0,30.06,NE,45,4.0,5.0,80,0.00,,,0.00,Rainwise IP-100,2013-08-17 01:55:00,
2013-08-16 21:00:00,71.0,64.0,30.06,NE,45,4.0,5.0,80,0.00,,,0.00,Rainwise IP-100,2013-08-17 02:00:00,
2013-08-16 21:05:00,71.0,65.0,30.06,NE,45,3.0,6.0,81,0.00,,,0.00,Rainwise IP-100,2013-08-17 02:05:00,
2013-08-16 21:10:00,71.0,65.0,30.06,NE,45,5.0,6.0,81,0.00,,,0.00,Rainwise IP-100,2013-08-17 02:10:00,
2013-08-16 21:15:00,71.0,65.0,30.07,NE,45,4.0,7.0,81,0.00,,,0.00,Rainwise IP-100,2013-08-17 02:15:00,
2013-08-16 21:20:00,71.0,64.0,30.07,NE,45,4.0,7.0,80,0.00,,,0.00,Rainwise IP-100,2013-08-17 02:20:00,
2013-08-16 21:25:00,71.0,64.0,30.07,ENE,67,4.0,7.0,80,0.00,,,0.00,Rainwise IP-100,2013-08-17 02:25:00,
2013-08-16 21:30:00,71.0,64.0,30.07,NE,45,1.0,7.0,80,0.00,,,0.00,Rainwise IP-100,2013-08-17 02:30:00,
2013-08-16 21:35:00,71.0,64.0,30.07,NE,45,1.0,7.0,80,0.00,,,0.00,Rainwise IP-100,2013-08-17 02:35:00,
2013-08-16 21:40:00,71.0,64.0,30.07,NE,45,1.0,2.0,80,0.00,,,0.00,Rainwise IP-100,2013-08-17 02:40:00,
2013-08-16 21:45:00,71.0,64.0,30.07,NE,45,3.0,6.0,80,0.00,,,0.00,Rainwise IP-100,2013-08-17 02:45:00,
2013-08-16 21:50:00,71.0,64.0,30.07,NE,45,4.0,6.0,80,0.00,,,0.00,Rainwise IP-100,2013-08-17 02:50:00,
2013-08-16 21:55:00,71.0,64.0,30.07,NE,45,4.0,6.0,80,0.00,,,0.00,Rainwise IP-100,2013-08-17 02:55:00,
2013-08-16 22:00:00,70.0,64.0,30.08,ENE,67,2.0,6.0,81,0.00,,,0.00,Rainwise IP-100,2013-08-17 03:00:00,
2013-08-16 22:05:00,70.0,64.0,30.08,ENE,67,2.0,3.0,81,0.00,,,0.00,Rainwise IP-100,2013-08-17 03:05:00,
2013-08-16 22:10:00,70.0,64.0,30.08,NE,45,3.0,4.0,82,0.00,,,0.00,Rainwise IP-100,2013-08-17 03:10:00,
2013-08-16 22:15:00,70.0,64.0,30.07,NE,45,5.0,6.0,82,0.00,,,0.00,Rainwise IP-100,2013-08-17 03:15:00,
2013-08-16 22:20:00,70.0,64.0,30.07,NE,45,3.0,6.0,82,0.00,,,0.00,Rainwise IP-100,2013-08-17 03:20:00,
2013-08-16 22:25:00,70.0,64.0,30.08,NE,45,6.0,7.0,83,0.00,,,0.00,Rainwise IP-100,2013-08-17 03:25:00,
2013-08-16 22:30:00,70.0,64.0,30.08,NE,45,6.0,7.0,83,0.00,,,0.00,Rainwise IP-100,2013-08-17 03:30:00,
2013-08-16 22:35:00,70.0,64.0,30.08,ENE,67,7.0,9.0,82,0.00,,,0.00,Rainwise IP-100,2013-08-17 03:35:00,
2013-08-16 22:40:00,70.0,64.0,30.08,ENE,67,7.0,8.0,83,0.00,,,0.00,Rainwise IP-100,2013-08-17 03:40:00,
2013-08-16 22:45:00,70.0,64.0,30.08,East,90,5.0,7.0,83,0.00,,,0.00,Rainwise IP-100,2013-08-17 03:45:00,
2013-08-16 22:50:00,70.0,64.0,30.08,ENE,67,6.0,7.0,82,0.00,,,0.00,Rainwise IP-100,2013-08-17 03:50:00,
2013-08-16 22:55:00,70.0,64.0,30.07,ENE,67,6.0,7.0,82,0.00,,,0.00,Rainwise IP-100,2013-08-17 03:55:00,
2013-08-16 23:00:00,70.0,64.0,30.07,NE,45,10.0,10.0,82,0.00,,,0.00,Rainwise IP-100,2013-08-17 04:00:00,
2013-08-16 23:01:00,70.0,64.0,30.07,NE,45,10.0,10.0,82,0.00,,,0.00,Rainwise IP-100,2013-08-17 04:01:00,
2013-08-16 23:03:00,70.0,64.0,30.07,NE,45,10.0,11.0,82,0.00,,,0.00,Rainwise IP-100,2013-08-17 04:03:00,
2013-08-16 23:08:00,70.0,64.0,30.07,ENE,67,6.0,11.0,83,0.00,,,0.00,Rainwise IP-100,2013-08-17 04:08:00,
2013-08-16 23:13:00,69.0,63.0,30.07,NE,45,9.0,10.0,83,0.00,,,0.00,Rainwise IP-100,2013-08-17 04:13:00,
2013-08-16 23:18:00,69.0,63.0,30.07,ENE,67,7.0,10.0,83,0.00,,,0.00,Rainwise IP-100,2013-08-17 04:18:00,
2013-08-16 23:23:00,69.0,63.0,30.07,ENE,67,7.0,10.0,83,0.00,,,0.00,Rainwise IP-100,2013-08-17 04:23:00,
2013-08-16 23:28:00,69.0,63.0,30.07,NE,45,6.0,10.0,83,0.00,,,0.00,Rainwise IP-100,2013-08-17 04:28:00,
2013-08-16 23:33:00,69.0,63.0,30.07,NE,45,2.0,8.0,83,0.00,,,0.00,Rainwise IP-100,2013-08-17 04:33:00,
2013-08-16 23:38:00,69.0,63.0,30.07,NE,45,2.0,9.0,83,0.00,,,0.00,Rainwise IP-100,2013-08-17 04:38:00,
2013-08-16 23:43:00,69.0,63.0,30.07,NE,45,6.0,9.0,82,0.00,,,0.00,Rainwise IP-100,2013-08-17 04:43:00,
2013-08-16 23:48:00,69.0,63.0,30.07,NE,45,6.0,9.0,82,0.00,,,0.00,Rainwise IP-100,2013-08-17 04:48:00,
2013-08-16 23:53:00,69.0,63.0,30.07,ENE,67,6.0,9.0,82,0.00,,,0.00,Rainwise IP-100,2013-08-17 04:53:00,
2013-08-16 23:58:00,69.0,63.0,30.07,NE,45,7.0,12.0,82,0.00,,,0.00,Rainwise IP-100,2013-08-17 04:58:00,